[[{"header":{"parameterUnit":"m.s-1","parameterCategory":1,"la1":30.2991,"la2":30.254,"lo1":-89.0895,"lo2":-89.0444,"dy":0.0017,"dx":0.0017,"nx":28,"ny":28,"refTime":"2025-01-15T03:00:00:Z","depth":0,"parameterNumber":2,"parameterNumberName":"U-component_of_WINDS"},"data":[0,0,0,0,0,0,0,0,0,0,0,0,0,0,0,0,0,0,0,0,0,0,0,0,0,0,0,0,0,0,0,0,0,0,0,0,0,0,0,0,0,0,0,0,0,0,0,0,0,0,0,0,0,0,0,0,0,0,-0.7094,-0.7095,0,-0.7153,-0.7154,-0.7155,-0.7152,-0.7152,-0.7151,-0.715,-0.7211,-0.7214,-0.7216,0,0,0,0,0,0,0,0,0,0,0,0,0,-0.6981,-0.6983,-0.7094,-0.7095,-0.7096,-0.7153,-0.7154,-0.7155,-0.7153,-0.7152,-0.7151,-0.715,-0.7211,-0.7213,-0.7216,0,0,0,0,0,0,0,0,0,0,0,0,0,-0.7034,-0.6984,-0.7094,-0.7102,-0.7103,-0.7153,-0.7154,-0.7155,-0.7153,-0.7152,-0.715,-0.7149,-0.721,-0.7213,-0.7217,-0.7263,0,0,-0.7228,-0.7229,0,0,0,0,0,0,0,0,-0.7031,-0.7038,-0.71,-0.7101,-0.7103,-0.7144,-0.7136,-0.7191,-0.7153,-0.7134,-0.715,-0.7149,-0.719,-0.7195,-0.7209,-0.7266,-0.7269,-0.7228,-0.723,-0.7232,-0.7233,0,0,0,0,0,0,0,-0.7028,-0.7036,-0.7118,-0.7101,-0.7103,-0.7102,-0.7108,-0.7147,-0.7168,-0.7135,-0.7135,-0.7142,-0.7191,-0.7205,-0.721,-0.727,-0.7228,-0.7231,-0.7233,-0.7235,-0.7369,-0.737,0,0,0,0,0,0,-0.7022,-0.7033,-0.7116,-0.7119,-0.7063,-0.7105,-0.7112,-0.7132,-0.7168,-0.7172,-0.7143,-0.7142,-0.72,-0.7206,-0.7213,-0.727,-0.7232,-0.7235,-0.7237,-0.7367,-0.7369,-0.7371,0,0,0,0,0,0,-0.702,-0.703,-0.7113,-0.7076,-0.7087,-0.7109,-0.7131,-0.7134,-0.7149,-0.7174,-0.7178,-0.7155,-0.7199,-0.7207,-0.7251,-0.7272,-0.7237,-0.724,-0.7366,-0.7368,-0.737,-0.7386,0,0,0,0,0,0,-0.7016,-0.7029,-0.7047,-0.7077,-0.7089,-0.7151,-0.7132,-0.7136,-0.7155,-0.7154,-0.7185,-0.7189,-0.7199,-0.7245,-0.7254,-0.7277,-0.7243,-0.7364,-0.7367,-0.7369,-0.7383,-0.7388,-0.7392,0,0,0,0,0,-0.7012,-0.7049,-0.7048,-0.7058,-0.7112,-0.7152,-0.7159,-0.7169,-0.7157,-0.7175,-0.7191,-0.7188,-0.7268,-0.725,-0.726,-0.7284,-0.7363,-0.7366,-0.7369,-0.7381,-0.7387,-0.7392,0,0,0,0,0,0,-0.7022,-0.7053,-0.7052,-0.7099,-0.7123,-0.7151,-0.7175,-0.7175,-0.7203,-0.72,-0.7212,-0.7219,-0.7262,-0.7277,-0.7256,-0.7331,-0.7314,-0.7319,-0.732,-0.7326,-0.733,-0.7326,-0.7246,0,0,0,0,0,-0.7029,-0.7059,-0.7085,-0.7124,-0.7136,-0.7153,-0.7171,-0.7177,-0.7202,-0.7212,-0.7231,-0.7256,-0.7287,-0.7307,-0.7336,-0.7385,-0.7392,-0.7406,-0.741,-0.7414,-0.7419,-0.7446,-0.7453,-0.7381,-0.7381,-0.7381,0,0,-0.7045,-0.7066,-0.7084,-0.7126,-0.7145,-0.7176,-0.7162,-0.7195,-0.7218,-0.7217,-0.7259,-0.7274,-0.7303,-0.7349,-0.737,-0.7363,-0.744,-0.7418,-0.742,-0.7424,-0.745,-0.7457,-0.7463,-0.7383,-0.7383,-0.7383,0,0,-0.709,-0.7108,-0.7143,-0.7162,-0.7191,-0.7202,-0.721,-0.7239,-0.7249,-0.7291,-0.7291,-0.7319,-0.7371,-0.7392,-0.7409,-0.746,-0.7459,-0.747,-0.7493,-0.7519,-0.7525,-0.753,-0.7549,-0.7556,-0.7474,-0.7474,-0.7474,0,-0.7106,-0.7152,-0.7161,-0.7195,-0.7213,-0.7213,-0.7248,-0.7267,-0.7304,-0.7317,-0.7307,-0.7373,-0.7392,-0.7444,-0.7456,-0.747,-0.748,-0.7467,-0.7523,-0.7529,-0.7534,-0.7552,-0.7559,-0.7475,-0.7475,-0.7475,-0.7475,0,-0.7171,-0.7203,-0.7228,-0.7264,-0.7285,-0.7319,-0.7333,-0.7354,-0.7357,-0.737,-0.7413,-0.7435,-0.747,-0.7482,-0.7486,-0.7534,-0.7528,-0.7521,-0.7504,-0.7541,-0.7559,-0.7566,-0.7477,-0.7477,-0.7476,-0.7476,0,0,-0.7225,-0.7264,-0.7273,-0.7289,-0.7321,-0.7346,-0.738,-0.7413,-0.7431,-0.7456,-0.7486,-0.7529,-0.7523,-0.7542,-0.7548,-0.7571,-0.7611,-0.7561,-0.7562,-0.757,-0.7667,-0.7673,-0.7681,-0.761,-0.7612,-0.7613,-0.7665,0,-0.7274,-0.7335,-0.7343,-0.7397,-0.7427,-0.7427,-0.7456,-0.7479,-0.7491,-0.7519,-0.7532,-0.7563,-0.7552,-0.7564,-0.7586,-0.7602,-0.7631,-0.7598,-0.7639,-0.764,-0.7633,-0.769,-0.7697,-0.7745,-0.7671,-0.7673,-0.7673,0,-0.734,-0.7366,-0.7423,-0.745,-0.7463,-0.749,-0.7521,-0.7547,-0.7572,-0.7579,-0.7601,-0.7604,-0.7639,-0.762,-0.767,-0.7647,-0.7664,-0.7674,-0.7676,-0.7681,-0.766,-0.7698,-0.776,-0.7768,-0.7684,-0.7683,-0.7683,0,-0.7374,-0.7424,-0.7465,-0.7479,-0.7511,-0.753,-0.7544,-0.7568,-0.7588,-0.7614,-0.7627,-0.7658,-0.7675,-0.7699,-0.771,-0.7695,-0.7759,-0.7741,-0.7767,-0.7767,-0.7782,-0.7781,-0.7849,-0.779,-0.779,-0.779,-0.779,0,-0.7429,-0.7464,-0.7481,-0.7506,-0.7545,-0.7554,-0.7593,-0.7607,-0.7628,-0.7656,-0.7657,-0.7683,-0.7695,-0.7724,-0.7732,-0.7773,-0.778,-0.7787,-0.7789,-0.7788,-0.7787,-0.78,-0.7798,-0.7792,-0.7792,-0.7791,-0.7791,0,-0.7475,-0.7488,-0.7532,-0.7559,-0.7566,-0.7594,-0.7617,-0.7641,-0.7652,-0.7688,-0.7697,-0.7715,-0.7748,-0.7761,-0.7801,-0.7807,-0.7854,-0.7853,-0.7845,-0.7846,-0.7872,-0.787,-0.7952,-0.7963,-0.7896,-0.7897,-0.7897,0,-0.751,-0.7537,-0.7566,-0.7585,-0.76,-0.7629,-0.7649,-0.7658,-0.7679,-0.7709,-0.773,-0.7763,-0.779,-0.7843,-0.786,-0.7891,-0.7892,-0.7918,-0.7896,-0.7894,-0.7893,-0.7892,-0.7895,-0.7922,-0.7923,-0.7924,-0.7924,0,-0.7571,-0.7575,-0.7603,-0.7633,-0.7657,-0.7681,-0.7704,-0.7719,-0.7733,-0.7755,-0.7789,-0.781,-0.7851,-0.7884,-0.7916,-0.793,-0.793,-0.793,-0.7938,-0.7938,-0.7933,-0.7937,-0.7858,-0.7929,-0.7929,-0.7928,-0.7928,-0.7928,-0.7613,-0.7637,-0.7661,-0.7692,-0.7711,-0.7733,-0.7757,-0.7771,-0.7799,-0.7833,-0.7837,-0.7873,-0.7898,-0.794,-0.7956,-0.7985,-0.7978,-0.7989,-0.7992,-0.7995,-0.7998,-0.7927,-0.7991,-0.799,-0.799,-0.799,-0.799,0,-0.7675,-0.769,-0.7718,-0.7751,-0.7776,-0.7772,-0.7797,-0.7818,-0.785,-0.7873,-0.7899,-0.7938,-0.7969,-0.7988,-0.802,-0.8039,-0.804,-0.8047,-0.8047,-0.805,-0.8001,-0.7992,-0.8046,-0.8046,-0.8046,-0.8046,-0.8046,-0.8046,-0.771,-0.775,-0.7758,-0.7807,-0.7822,-0.7858,-0.7873,-0.7893,-0.7911,-0.7954,-0.798,-0.7992,-0.8013,-0.8047,-0.8076,-0.808,-0.8092,-0.8101,-0.8105,-0.806,-0.8054,-0.8048,-0.804,-0.8103,-0.8103,-0.8152,-0.8152,-0.8153]},{"header":{"parameterUnit":"m.s-1","parameterCategory":1,"la1":30.2991,"la2":30.254,"lo1":-89.0895,"lo2":-89.0444,"dy":0.0017,"dx":0.0017,"nx":28,"ny":28,"refTime":"2025-01-15T03:00:00:Z","depth":0,"parameterNumber":3,"parameterNumberName":"V-component_of_WINDS"},"data":[0,0,0,0,0,0,0,0,0,0,0,0,0,0,0,0,0,0,0,0,0,0,0,0,0,0,0,0,0,0,0,0,0,0,0,0,0,0,0,0,0,0,0,0,0,0,0,0,0,0,0,0,0,0,0,0,0,0,-2.5046,-2.5047,0,-2.5167,-2.5169,-2.517,-2.5179,-2.5178,-2.5177,-2.5176,-2.5295,-2.53,-2.5304,0,0,0,0,0,0,0,0,0,0,0,0,0,-2.4817,-2.4821,-2.5045,-2.5047,-2.5049,-2.5167,-2.5169,-2.517,-2.518,-2.5178,-2.5177,-2.5175,-2.5294,-2.5299,-2.5304,0,0,0,0,0,0,0,0,0,0,0,0,0,-2.4925,-2.4823,-2.5045,-2.5068,-2.5071,-2.5167,-2.5169,-2.5171,-2.518,-2.5178,-2.5176,-2.5174,-2.5292,-2.5299,-2.5305,-2.5385,0,0,-2.5325,-2.5328,0,0,0,0,0,0,0,0,-2.4919,-2.4933,-2.5063,-2.5066,-2.507,-2.5156,-2.5132,-2.5243,-2.5181,-2.5138,-2.5176,-2.5173,-2.525,-2.526,-2.5287,-2.5391,-2.5396,-2.5326,-2.533,-2.5333,-2.5335,0,0,0,0,0,0,0,-2.4911,-2.4928,-2.5093,-2.5065,-2.5069,-2.507,-2.5083,-2.5153,-2.5204,-2.5142,-2.5143,-2.5157,-2.5252,-2.5281,-2.529,-2.5398,-2.5326,-2.5332,-2.5336,-2.5338,-2.5574,-2.5576,0,0,0,0,0,0,-2.49,-2.4922,-2.509,-2.5097,-2.4988,-2.5076,-2.5091,-2.513,-2.5203,-2.5212,-2.5159,-2.5157,-2.527,-2.5282,-2.5294,-2.5394,-2.5333,-2.5339,-2.5343,-2.5572,-2.5574,-2.5577,0,0,0,0,0,0,-2.4895,-2.4915,-2.5085,-2.501,-2.5032,-2.5082,-2.5127,-2.5134,-2.5163,-2.5216,-2.5225,-2.518,-2.5269,-2.5285,-2.5363,-2.5398,-2.5342,-2.5348,-2.5569,-2.5573,-2.5576,-2.5593,0,0,0,0,0,0,-2.4889,-2.4913,-2.4945,-2.5011,-2.5036,-2.5153,-2.5129,-2.5138,-2.5175,-2.5174,-2.5238,-2.5246,-2.5269,-2.5353,-2.537,-2.5406,-2.5353,-2.5566,-2.5571,-2.5575,-2.5589,-2.5596,-2.5602,0,0,0,0,0,-2.4881,-2.4944,-2.4947,-2.4967,-2.5077,-2.5155,-2.5169,-2.5195,-2.5178,-2.521,-2.5244,-2.5244,-2.5391,-2.5361,-2.538,-2.5419,-2.5564,-2.5569,-2.5574,-2.5586,-2.5595,-2.5602,0,0,0,0,0,0,-2.488,-2.4953,-2.4957,-2.5044,-2.5093,-2.5156,-2.5198,-2.5203,-2.5258,-2.5254,-2.5283,-2.5297,-2.5375,-2.5404,-2.5369,-2.55,-2.5476,-2.5485,-2.5478,-2.5487,-2.5493,-2.5485,-2.5359,0,0,0,0,0,-2.489,-2.4949,-2.5009,-2.5079,-2.5104,-2.5147,-2.5182,-2.5198,-2.525,-2.527,-2.531,-2.5359,-2.5416,-2.5453,-2.5509,-2.5593,-2.5607,-2.5629,-2.5636,-2.5641,-2.5648,-2.5696,-2.5706,-2.5594,-2.5594,-2.5594,0,0,-2.4911,-2.4958,-2.4993,-2.5081,-2.5121,-2.518,-2.5164,-2.5227,-2.5271,-2.5279,-2.5356,-2.5387,-2.5443,-2.5525,-2.5563,-2.5552,-2.5683,-2.5647,-2.5651,-2.5656,-2.5702,-2.5713,-2.5722,-2.5597,-2.5597,-2.5596,0,0,-2.498,-2.5021,-2.5085,-2.5127,-2.5188,-2.5216,-2.5232,-2.5294,-2.5316,-2.5394,-2.5402,-2.5453,-2.5551,-2.5591,-2.5624,-2.5709,-2.5711,-2.5726,-2.576,-2.5806,-2.5815,-2.5823,-2.5853,-2.5864,-2.5733,-2.5734,-2.5734,0,-2.4997,-2.5088,-2.5117,-2.5181,-2.5219,-2.5231,-2.5295,-2.5333,-2.5409,-2.5434,-2.5421,-2.5545,-2.5584,-2.5676,-2.5697,-2.5723,-2.5741,-2.5719,-2.5812,-2.582,-2.5828,-2.5857,-2.5869,-2.5735,-2.5735,-2.5735,-2.5735,0,-2.5107,-2.517,-2.5214,-2.529,-2.5333,-2.5396,-2.5433,-2.5473,-2.5485,-2.5514,-2.5593,-2.564,-2.5706,-2.5729,-2.5741,-2.5823,-2.5814,-2.5806,-2.5782,-2.584,-2.5868,-2.5879,-2.5737,-2.5737,-2.5736,-2.5736,0,0,-2.5178,-2.527,-2.5286,-2.5321,-2.539,-2.5438,-2.5502,-2.5568,-2.5602,-2.5653,-2.5707,-2.579,-2.5784,-2.5822,-2.5838,-2.5878,-2.5943,-2.5866,-2.5867,-2.5879,-2.6036,-2.6042,-2.6055,-2.5945,-2.5947,-2.5949,-2.6031,0,-2.5255,-2.5371,-2.5399,-2.5498,-2.5556,-2.5569,-2.5624,-2.5672,-2.5701,-2.5753,-2.5784,-2.5843,-2.5829,-2.5852,-2.5893,-2.5927,-2.5975,-2.5921,-2.5994,-2.5997,-2.598,-2.6069,-2.6076,-2.6151,-2.6043,-2.6044,-2.6046,0,-2.536,-2.5417,-2.5522,-2.5585,-2.561,-2.566,-2.5723,-2.5773,-2.5828,-2.5846,-2.5888,-2.5901,-2.5967,-2.5939,-2.603,-2.5992,-2.6024,-2.6045,-2.6048,-2.6056,-2.6025,-2.608,-2.6176,-2.6187,-2.6063,-2.6062,-2.6061,0,-2.5402,-2.5505,-2.5581,-2.561,-2.5685,-2.572,-2.5752,-2.5805,-2.5843,-2.5897,-2.5922,-2.5983,-2.6016,-2.6062,-2.6091,-2.6068,-2.6179,-2.6153,-2.6195,-2.6194,-2.6218,-2.6216,-2.6321,-2.6237,-2.6237,-2.6237,-2.6237,0,-2.5486,-2.5549,-2.5601,-2.5648,-2.572,-2.5751,-2.582,-2.5852,-2.5899,-2.5952,-2.5965,-2.6014,-2.6048,-2.6101,-2.6124,-2.6195,-2.621,-2.6225,-2.6231,-2.6225,-2.6223,-2.6246,-2.6241,-2.624,-2.6239,-2.6239,-2.6238,0,-2.5545,-2.5582,-2.5666,-2.5731,-2.5748,-2.5798,-2.5853,-2.5898,-2.5928,-2.5994,-2.6011,-2.6057,-2.612,-2.6153,-2.6231,-2.6246,-2.6327,-2.6329,-2.6309,-2.6311,-2.6351,-2.6347,-2.6475,-2.6493,-2.6397,-2.6398,-2.6399,0,-2.5595,-2.5645,-2.5716,-2.5753,-2.5787,-2.5846,-2.5886,-2.5918,-2.5958,-2.6024,-2.6061,-2.6126,-2.6179,-2.6279,-2.6318,-2.6378,-2.6382,-2.6423,-2.6391,-2.6384,-2.6383,-2.638,-2.6385,-2.6428,-2.6429,-2.643,-2.643,0,-2.5682,-2.5698,-2.5756,-2.582,-2.5868,-2.5919,-2.597,-2.5999,-2.6039,-2.6084,-2.615,-2.6191,-2.6273,-2.6336,-2.6399,-2.6431,-2.6437,-2.644,-2.6453,-2.6447,-2.6434,-2.6442,-2.6325,-2.6437,-2.6436,-2.6436,-2.6435,-2.6435,-2.5739,-2.5784,-2.5841,-2.5905,-2.5947,-2.5995,-2.6041,-2.6077,-2.6133,-2.6203,-2.6218,-2.6287,-2.634,-2.6426,-2.646,-2.6514,-2.6505,-2.6524,-2.6528,-2.6533,-2.6535,-2.6426,-2.6525,-2.6525,-2.6525,-2.6525,-2.6525,0,-2.5826,-2.5864,-2.5923,-2.5995,-2.6045,-2.6048,-2.6105,-2.6146,-2.6208,-2.6257,-2.631,-2.6386,-2.6448,-2.6492,-2.6555,-2.659,-2.6594,-2.6605,-2.6603,-2.661,-2.6538,-2.6521,-2.66,-2.66,-2.66,-2.66,-2.66,-2.66,-2.5878,-2.5955,-2.5978,-2.6075,-2.6112,-2.6182,-2.6215,-2.6258,-2.6298,-2.6383,-2.6435,-2.6464,-2.6512,-2.6578,-2.6635,-2.6646,-2.6668,-2.6679,-2.6691,-2.6623,-2.6615,-2.6607,-2.6592,-2.6684,-2.6684,-2.6758,-2.6759,-2.6759]}]]